Weather History for Dyersburg, TN

Change the Weather History Date:

Sunday, May 6, 2012

  Actual Average Record
Temperature  
Mean Temperature 80 °F -  
Max Temperature 91 °F 74 °F 91 °F (2012)
Min Temperature 68 °F 56 °F 46 °F (2005)
Cooling Degree Days 15    
Growing Degree Days 30 (Base 50)    
Moisture  
Dew Point 62 °F    
Average Humidity 53    
Maximum Humidity 73    
Minimum Humidity 41    
Precipitation  
Precipitation 0.22 in - - ()
Sea Level Pressure  
Sea Level Pressure 29.92 in    
Wind  
Wind Speed 4 mph (SE)    
Max Wind Speed 20 mph    
Max Gust Speed 26 mph    
Visibility 10 miles    
Events Thunderstorm    
Averages and records for this station are not official NWS values.
T = Trace of Precipitation, MM = Missing Value Source: NWS Daily Summary

Daily Weather History Graph

Daily Weather History Graph

Search for Another Location

Airport:

Trip Planner

Search our weather history database for the weather conditions in past years. The results will help you decide how hot, cold, wet, or windy it might be!

Date:

Astronomy

May. 06, 2012 Rise Set
Actual Time 5:59 AM CDT 7:49 PM CDT
Civil Twilight 5:31 AM CDT 8:17 PM CDT
Nautical Twilight 4:57 AM CDT 8:51 PM CDT
Astronomical Twilight 4:21 AM CDT 9:27 PM CDT
Moon 8:52 PM CDT (5/6) 6:11 AM CDT (5/6)
Length of Visible Light 14h 45m
Length of Day
13h 50m
Full, 100% of the Moon is Illuminated
May 6
Full
May 12
Last Quarter
May 20
New
May 28
First Quarter
Jun 4
Full

Hourly Weather History & Observations

Time (CDT) Temp. Heat Index Dew Point Humidity Pressure Visibility Wind Dir Wind Speed Gust Speed Precip Events Conditions
12:15 AM 73.4 °F - 64.4 °F 73% 29.94 in 10.0 mi Calm Calm - N/A   Clear
12:35 AM - - - N/A% 29.93 in 10.0 mi Calm Calm - N/A   Clear
12:55 AM - - - N/A% 29.93 in 10.0 mi Calm Calm - N/A   Clear
1:15 AM 73.4 °F - 64.4 °F 73% 29.93 in 10.0 mi East 4.6 mph - N/A   Clear
1:35 AM 73.4 °F - 64.4 °F 73% 29.93 in 10.0 mi Calm Calm - N/A   Clear
1:55 AM - - - N/A% 29.91 in 10.0 mi South 3.5 mph - N/A   Clear
2:15 AM - - - N/A% 29.92 in 10.0 mi Calm Calm - N/A   Clear
2:35 AM 73.4 °F - 64.4 °F 73% 29.93 in 10.0 mi Calm Calm - N/A   Clear
2:55 AM 73.4 °F - 64.4 °F 73% 29.94 in 10.0 mi ENE 8.1 mph - N/A   Clear
3:15 AM - - - N/A% 29.93 in 10.0 mi Calm Calm - N/A   Clear
3:35 AM - - - N/A% 29.93 in 10.0 mi East 3.5 mph - N/A   Clear
3:55 AM - - - N/A% 29.93 in 10.0 mi ENE 3.5 mph - N/A   Clear
4:15 AM - - - N/A% 29.93 in 10.0 mi East 4.6 mph - N/A   Clear
4:35 AM - - - N/A% 29.94 in 10.0 mi ENE 6.9 mph - N/A   Clear
4:55 AM - - - N/A% 29.94 in 10.0 mi ESE 8.1 mph - N/A   Clear
5:15 AM - - - N/A% 29.95 in 10.0 mi East 8.1 mph - N/A   Clear
5:35 AM - - - N/A% 29.94 in 10.0 mi East 5.8 mph - N/A   Clear
5:55 AM - - - N/A% 29.95 in 10.0 mi ESE 4.6 mph - N/A   Clear
6:15 AM - - - N/A% 29.95 in 10.0 mi SE 5.8 mph - N/A   Clear
6:35 AM - - - N/A% 29.95 in 10.0 mi South 4.6 mph - N/A   Clear
6:55 AM - - - N/A% 29.94 in 10.0 mi SSE 5.8 mph - N/A   Clear
7:15 AM - - - N/A% 29.94 in 10.0 mi South 5.8 mph - N/A   Clear
7:35 AM - - - N/A% 29.93 in 10.0 mi South 5.8 mph - N/A   Clear
7:55 AM 73.4 °F - 57.2 °F 57% 29.96 in 10.0 mi North 5.8 mph - N/A   Clear
8:15 AM 73.4 °F - 57.2 °F 57% 29.96 in 10.0 mi Calm Calm - N/A   Clear
8:35 AM - - - N/A% 29.96 in 10.0 mi Calm Calm - N/A   Clear
8:55 AM 73.4 °F - 57.2 °F 57% 29.96 in 10.0 mi South 4.6 mph - N/A   Clear
9:15 AM 73.4 °F - 57.2 °F 57% 29.97 in 10.0 mi East 6.9 mph - N/A   Clear
9:35 AM 73.4 °F - 57.2 °F 57% 29.97 in 10.0 mi ESE 6.9 mph - N/A   Clear
9:55 AM 75.2 °F - 57.2 °F 53% 29.97 in 10.0 mi SE 5.8 mph - N/A   Clear
10:15 AM 75.2 °F - 59.0 °F 57% 29.97 in 10.0 mi South 4.6 mph - N/A   Clear
10:35 AM 77.0 °F - 59.0 °F 54% 29.98 in 10.0 mi SSE 6.9 mph - N/A   Clear
10:55 AM 78.8 °F - 59.0 °F 51% 29.97 in 10.0 mi ESE 4.6 mph - N/A   Clear
11:15 AM 78.8 °F - 60.8 °F 54% 29.97 in 10.0 mi SE 3.5 mph - N/A   Clear
11:35 AM 80.6 °F 81.5 °F 60.8 °F 51% 29.97 in 10.0 mi South 5.8 mph - N/A   Clear
11:55 AM 82.4 °F 83.4 °F 62.6 °F 51% 29.96 in 9.0 mi SSE 8.1 mph - N/A   Clear
12:15 PM 84.2 °F 85.0 °F 62.6 °F 48% 29.96 in 10.0 mi SSE 6.9 mph - N/A   Clear
12:35 PM 84.2 °F 85.0 °F 62.6 °F 48% 29.95 in 10.0 mi SSE 5.8 mph - N/A   Clear
12:55 PM 86.0 °F 87.3 °F 64.4 °F 48% 29.94 in 10.0 mi SSE 4.6 mph - N/A   Clear
1:15 PM 87.8 °F 89.4 °F 64.4 °F 46% 29.93 in 9.0 mi SE 6.9 mph - N/A   Clear
1:35 PM 91.4 °F 93.2 °F 64.4 °F 41% 29.92 in 10.0 mi SSW 4.6 mph - N/A   Clear
1:55 PM 89.6 °F 91.1 °F 64.4 °F 43% 29.92 in 10.0 mi SSE 8.1 mph - N/A   Clear
2:15 PM 89.6 °F 91.1 °F 64.4 °F 43% 29.92 in 10.0 mi South 5.8 mph - N/A   Clear
2:35 PM 89.6 °F 91.1 °F 64.4 °F 43% 29.92 in 10.0 mi South 3.5 mph - N/A   Clear
2:55 PM 89.6 °F 91.1 °F 64.4 °F 43% 29.91 in 10.0 mi South 4.6 mph - N/A   Clear
3:15 PM 91.4 °F 93.2 °F 64.4 °F 41% 29.90 in 10.0 mi SSE 6.9 mph - N/A   Clear
3:35 PM 91.4 °F 93.2 °F 64.4 °F 41% 29.89 in 10.0 mi SE 5.8 mph - N/A   Clear
3:55 PM 89.6 °F 91.1 °F 64.4 °F 43% 29.87 in 10.0 mi East 6.9 mph - N/A   Partly Cloudy
4:15 PM 91.4 °F 93.2 °F 64.4 °F 41% 29.87 in 10.0 mi SE 6.9 mph - N/A   Scattered Clouds
4:35 PM 89.6 °F 91.1 °F 64.4 °F 43% 29.86 in 10.0 mi East 3.5 mph - N/A   Scattered Clouds
4:55 PM 89.6 °F 91.1 °F 64.4 °F 43% 29.86 in 10.0 mi SE 8.1 mph - N/A   Partly Cloudy
5:15 PM 91.4 °F 93.2 °F 64.4 °F 41% 29.86 in 9.0 mi SE 8.1 mph - N/A   Mostly Cloudy
5:35 PM 89.6 °F 91.1 °F 64.4 °F 43% 29.85 in 9.0 mi ESE 8.1 mph - N/A   Mostly Cloudy
5:55 PM 87.8 °F 89.4 °F 64.4 °F 46% 29.84 in 10.0 mi ESE 6.9 mph - N/A   Partly Cloudy
6:15 PM 86.0 °F 87.3 °F 64.4 °F 48% 29.84 in 10.0 mi ESE 5.8 mph - N/A   Partly Cloudy
6:35 PM 84.2 °F 85.6 °F 64.4 °F 51% 29.85 in 10.0 mi Calm Calm - N/A   Partly Cloudy
6:55 PM 84.2 °F 85.6 °F 64.4 °F 51% 29.85 in 10.0 mi SE 4.6 mph - N/A   Clear
7:15 PM 82.4 °F 83.4 °F 62.6 °F 51% 29.86 in 10.0 mi SE 3.5 mph - N/A   Clear
7:35 PM 82.4 °F 83.4 °F 62.6 °F 51% 29.86 in 10.0 mi ESE 4.6 mph - N/A   Partly Cloudy
7:55 PM 82.4 °F 83.4 °F 62.6 °F 51% 29.86 in 10.0 mi ESE 6.9 mph - N/A Thunderstorm Partly Cloudy
8:15 PM 82.4 °F 82.0 °F 57.2 °F 42% 29.87 in 10.0 mi West 17.3 mph 25.3 mph N/A Thunderstorm Thunderstorm
8:35 PM 78.8 °F - 57.2 °F 47% 29.88 in 10.0 mi West 8.1 mph - N/A Thunderstorm Thunderstorm
8:55 PM 73.4 °F - 57.2 °F 57% 29.91 in 9.0 mi SW 19.6 mph 26.5 mph N/A Thunderstorm Thunderstorm
9:15 PM 73.4 °F - 57.2 °F 57% 29.90 in 10.0 mi WSW 12.7 mph - N/A Thunderstorm Thunderstorm
9:35 PM 73.4 °F - 60.8 °F 65% 29.90 in 10.0 mi SW 8.1 mph - N/A Thunderstorm Scattered Clouds
9:55 PM 71.6 °F - 59.0 °F 64% 29.91 in 9.0 mi SSW 6.9 mph - N/A Thunderstorm Partly Cloudy
10:15 PM 71.6 °F - 57.2 °F 60% 29.91 in 10.0 mi WSW 4.6 mph - N/A Thunderstorm Mostly Cloudy
10:35 PM 69.8 °F - 60.8 °F 73% 29.94 in 10.0 mi Calm Calm - 0.02 in Thunderstorm Thunderstorm
10:55 PM - - - N/A% 29.94 in 10.0 mi WSW 10.4 mph - 0.08 in   Overcast
11:15 PM - - - N/A% 29.93 in 10.0 mi WSW 11.5 mph - 0.04 in Thunderstorm Overcast
11:35 PM 68.0 °F - 59.0 °F 73% 29.93 in 10.0 mi SW 8.1 mph - 0.08 in   Overcast
11:55 PM - - - N/A% 29.89 in 10.0 mi SSE 15.0 mph 24.2 mph 0.14 in   Overcast